Temp
6 7 7 8 8 8 7 8 8 8 8 8 8 8 8 8 8 8 8 8 8 8 8 8 8 8 8 7 7 7 7 7 6 6 6 6 6 5 6 6 6 6 6
6 7 7 7 7 7 7 7 7 7 7 7 7 7 7 7 7 7 8 8 8 8 8 8 8 8 8 7 7 7 7 6 6 6 7 6 6 6 6 6 6 6 6
7 7 7 7 7 7 7 7 7 7 7 7 7 7 7 7 7 7 7 7 8 8 8 8 8 8 8 7 7 7 7 7 7 6 6 6 5 5 5 5 4 4 4
8 7 7 7 7 7 7 7 7 7 7 7 7 7 6 6 6 6 6 7 7 7 7 7 7 7 7 7 7 7 7 6 6 6 6 5 5 5 5 4 4 5 4
8 7 7 7 7 7 7 7 7 7 7 7 7 6 6 6 6 6 6 6 6 6 6 7 7 7 7 7 7 7 7 7 6 6 6 6 5 5 5 4 4 3 4
9 8 7 7 7 7 7 7 7 7 7 7 7 7 6 6 6 6 6 6 6 6 6 6 6 6 6 6 6 6 6 6 5 5 5 5 4 4 4 4 4 3 3
8 7 7 7 7 7 7 6 7 7 7 7 7 7 7 6 6 6 6 6 6 6 5 6 5 5 5 5 5 5 5 5 5 5 5 4 4 4 4 4 4 4 4
7 7 7 7 7 6 7 7 6 7 7 7 7 7 6 7 6 6 6 5 5 5 5 5 5 5 5 4 4 4 4 4 4 4 4 4 4 3 3 3 3 3 3
7 6 6 7 7 6 7 7 6 6 7 6 6 6 7 6 7 6 5 5 5 4 4 5 5 4 4 4 4 3 3 3 3 3 3 3 3 3 3 3 2 2 2
7 7 6 6 7 6 6 7 6 6 6 7 6 6 6 6 6 6 5 4 4 3 4 4 4 4 4 3 3 3 2 3 3 3 3 3 3 3 3 3 2 2 1
7 7 6 6 7 7 7 7 6 6 7 7 6 5 5 5 5 5 4 3 4 3 3 3 3 4 3 3 2 2 3 3 3 3 3 3 3 3 3 3 2 2 1
7 7 7 7 7 7 7 7 7 7 7 7 7 6 6 6 6 5 4 3 4 4 3 3 3 3 2 2 2 2 3 3 3 2 2 2 2 1 2 2 1 1 1
7 8 8 8 8 8 8 8 7 7 7 8 7 6 6 6 5 5 4 3 3 3 3 2 2 3 2 2 2 2 3 2 2 2 1 1 1 1 1 1 1 1 1
8 8 8 8 8 8 8 8 8 8 7 7 7 6 6 6 5 5 4 5 4 4 3 2 2 2 2 2 2 2 2 2 2 1 1 1 1 1 1 1 0 -0 -1
9 9 9 8 8 8 8 8 8 8 8 7 7 7 6 6 5 5 5 5 4 4 3 1 1 1 2 2 2 2 2 2 1 1 1 0 0 -0 -0 -0 -0 -1 -1
9 9 9 8 8 8 8 8 8 7 7 7 6 6 6 6 5 5 4 4 4 3 2 1 1 1 1 1 1 1 1 0 0 -0 -0 -0 -1 -1 -1 -1 -2 -2 -2
8 8 8 8 7 7 7 7 7 7 7 7 6 6 6 5 5 5 4 4 3 2 2 1 1 1 1 1 0 0 -0 -1 -1 -1 -1 -1 -1 -2 -2 -2 -3 -3 -3
7 7 7 7 7 6 6 6 6 6 6 6 6 5 5 5 4 4 4 3 2 2 2 1 1 0 0 -0 -1 -1 -1 -1 -1 -2 -2 -2 -2 -3 -3 -3 -4 -4 -4
7 7 7 7 6 6 6 6 6 6 6 5 5 5 5 4 4 3 3 2 2 1 1 0 -0 -1 -1 -1 -1 -2 -2 -2 -2 -2 -3 -3 -3 -3 -4 -6 -6 -6 -6
6 6 6 6 6 6 6 5 5 5 5 4 4 4 3 3 3 2 2 1 1 0 -0 -1 -1 -1 -2 -2 -2 -2 -3 -4 -5 -5 -6 -6 -6 -6 -7 -7 -7 -7 -7
6 6 5 5 5 5 4 4 4 4 4 3 3 3 2 2 1 1 0 -0 -0 -1 -1 -2 -2 -3 -2 -3 -3 -4 -5 -6 -6 -6 -6 -6 -5 -4 -6 -7 -7 -7 -7
4 4 4 3 3 3 3 3 3 2 2 2 2 1 1 -0 -0 -1 -1 -1 -1 -2 -2 -2 -3 -4 -5 -4 -4 -4 -5 -4 -4 -4 -4 -4 -4 -4 -4 -5 -7 -7 -7
3 3 3 3 2 2 2 2 2 1 1 0 -0 -0 -1 -1 -1 -2 -2 -2 -2 -2 -3 -3 -4 -4 -4 -4 -4 -4 -4 -4 -4 -4 -4 -4 -4 -4 -4 -5 -5 -6 -6
3 3 2 1 1 0 1 0 -0 -0 -2 -2 -2 -2 -2 -1 -2 -2 -2 -2 -3 -2 -3 -3 -4 -4 -4 -4 -4 -4 -4 -4 -4 -4 -4 -4 -4 -4 -4 -4 -5 -5 -5
2 2 1 1 -0 -0 -0 -1 -1 -2 -2 -2 -2 -2 -2 -2 -2 -2 -3 -3 -3 -2 -3 -3 -4 -4 -4 -4 -4 -4 -4 -3 -3 -3 -4 -4 -4 -4 -4 -4 -5 -5 -5
2 1 1 1 -1 -1 -1 -2 -2 -2 -2 -2 -2 -2 -2 -2 -2 -2 -3 -3 -3 -3 -3 -3 -4 -4 -4 -4 -4 -3 -3 -3 -3 -4 -4 -4 -4 -4 -4 -5 -5 -5 -5
Height
3176 3181 3184 3185 3184 3182 3181 3180 3180 3179 3177 3175 3173 3172 3172 3172 3171 3170 3169 3167 3166 3165 3163 3162 3162 3162 3162 3162 3161 3161 3161 3161 3162 3162 3163 3162 3163 3164 3165 3164 3164 3163 3162
3172 3180 3183 3184 3183 3182 3181 3182 3181 3179 3176 3175 3174 3173 3172 3172 3171 3170 3170 3169 3168 3166 3164 3163 3162 3161 3162 3161 3161 3160 3160 3160 3160 3160 3160 3160 3161 3161 3161 3160 3159 3158 3157
3175 3178 3181 3182 3182 3182 3183 3182 3181 3179 3176 3174 3173 3173 3172 3172 3171 3170 3169 3168 3167 3166 3165 3163 3162 3162 3161 3160 3160 3159 3159 3158 3158 3158 3159 3159 3159 3159 3158 3157 3156 3155 3153
3175 3177 3179 3181 3181 3182 3182 3180 3179 3178 3176 3174 3172 3171 3172 3171 3170 3170 3169 3168 3167 3166 3164 3163 3162 3161 3160 3160 3159 3159 3158 3158 3157 3157 3156 3156 3156 3156 3155 3154 3153 3151 3150
3175 3176 3178 3179 3180 3182 3181 3179 3177 3177 3175 3173 3171 3170 3170 3169 3169 3169 3169 3168 3167 3166 3165 3163 3162 3161 3160 3160 3159 3158 3158 3157 3156 3156 3155 3154 3154 3153 3152 3151 3149 3148 3146
3176 3175 3177 3178 3180 3180 3179 3178 3178 3176 3174 3172 3170 3170 3169 3168 3168 3167 3167 3166 3166 3166 3165 3164 3163 3162 3160 3160 3159 3157 3157 3156 3155 3154 3153 3152 3151 3150 3149 3148 3146 3145 3143
3175 3176 3176 3177 3178 3179 3178 3177 3176 3175 3173 3171 3169 3168 3168 3167 3167 3166 3166 3166 3166 3165 3164 3164 3163 3162 3161 3159 3158 3157 3156 3155 3154 3152 3151 3150 3148 3147 3146 3145 3143 3141 3139
3170 3173 3174 3175 3177 3177 3176 3176 3175 3174 3172 3170 3169 3167 3166 3165 3164 3164 3164 3164 3164 3164 3163 3162 3162 3161 3159 3158 3157 3156 3154 3153 3152 3150 3148 3147 3146 3144 3143 3141 3139 3137 3135
3168 3169 3170 3172 3173 3174 3175 3174 3173 3172 3170 3169 3168 3166 3165 3163 3161 3162 3162 3162 3162 3162 3161 3160 3159 3158 3157 3156 3155 3153 3152 3150 3148 3146 3144 3143 3142 3140 3139 3137 3136 3133 3130
3166 3168 3169 3169 3170 3171 3171 3171 3169 3168 3168 3167 3166 3164 3162 3161 3160 3159 3159 3159 3160 3159 3159 3158 3157 3155 3154 3153 3152 3150 3147 3146 3144 3142 3141 3139 3137 3136 3134 3133 3131 3129 3128
3163 3164 3164 3161 3166 3167 3168 3168 3167 3166 3165 3164 3163 3162 3160 3159 3157 3156 3155 3156 3156 3155 3155 3154 3153 3152 3151 3150 3148 3146 3144 3142 3140 3138 3136 3134 3132 3130 3128 3127 3126 3125 3123
3159 3162 3162 3162 3163 3163 3163 3164 3163 3162 3161 3161 3160 3159 3157 3156 3155 3153 3153 3152 3152 3152 3152 3151 3150 3149 3148 3147 3145 3143 3140 3138 3136 3134 3132 3130 3128 3126 3124 3123 3122 3120 3119
3157 3157 3158 3158 3158 3159 3159 3159 3159 3158 3157 3156 3156 3155 3154 3153 3152 3151 3150 3149 3149 3148 3149 3148 3146 3145 3144 3143 3141 3138 3137 3135 3133 3131 3130 3128 3126 3124 3122 3120 3118 3117 3114
3155 3154 3154 3154 3154 3154 3155 3155 3155 3153 3153 3153 3152 3151 3150 3150 3149 3148 3147 3146 3144 3144 3144 3143 3143 3142 3140 3139 3138 3136 3134 3133 3131 3130 3128 3125 3123 3121 3119 3117 3116 3113 3111
3150 3149 3149 3148 3148 3148 3149 3149 3149 3149 3149 3149 3149 3148 3147 3146 3145 3144 3143 3142 3141 3140 3140 3141 3140 3138 3137 3136 3134 3133 3132 3130 3128 3127 3125 3123 3120 3118 3116 3114 3112 3110 3108
3146 3144 3143 3142 3142 3143 3143 3143 3144 3144 3144 3144 3144 3143 3143 3142 3141 3140 3140 3138 3137 3137 3137 3137 3137 3136 3135 3133 3132 3130 3129 3127 3126 3124 3121 3119 3117 3115 3113 3111 3109 3106 3104
3140 3140 3139 3138 3138 3137 3138 3138 3139 3139 3139 3139 3139 3139 3138 3138 3137 3136 3135 3135 3134 3134 3134 3134 3133 3133 3132 3131 3129 3127 3126 3124 3122 3120 3118 3116 3114 3112 3110 3108 3106 3104 3102
3135 3135 3134 3133 3133 3132 3132 3133 3133 3133 3132 3133 3134 3134 3133 3133 3132 3132 3131 3131 3130 3130 3130 3130 3130 3129 3129 3127 3126 3124 3122 3121 3120 3118 3116 3114 3112 3110 3107 3105 3103 3101 3098
3129 3129 3129 3128 3128 3127 3127 3127 3127 3127 3127 3129 3128 3128 3128 3127 3127 3127 3127 3127 3127 3127 3127 3127 3126 3126 3125 3123 3122 3121 3119 3118 3116 3114 3112 3110 3108 3106 3104 3102 3101 3097 3094
3122 3123 3122 3122 3121 3121 3121 3121 3122 3122 3123 3124 3123 3122 3123 3122 3122 3122 3123 3123 3123 3123 3123 3123 3122 3121 3121 3119 3117 3116 3115 3113 3111 3110 3109 3106 3104 3102 3102 3100 3098 3096 3094
3112 3113 3114 3114 3114 3114 3115 3116 3117 3118 3119 3119 3118 3119 3119 3118 3118 3119 3120 3119 3120 3120 3120 3119 3119 3117 3116 3114 3113 3111 3110 3110 3109 3107 3105 3102 3099 3097 3095 3095 3093 3092 3090
3103 3104 3105 3106 3107 3109 3110 3111 3112 3113 3114 3115 3114 3114 3114 3115 3115 3116 3116 3116 3116 3116 3115 3114 3114 3114 3114 3111 3109 3107 3106 3104 3102 3100 3098 3096 3093 3091 3088 3086 3083 3084 3083
3097 3098 3098 3100 3102 3103 3104 3106 3108 3109 3110 3110 3110 3110 3111 3111 3112 3112 3112 3111 3111 3110 3109 3108 3108 3107 3105 3104 3103 3102 3100 3097 3095 3093 3091 3089 3086 3083 3081 3078 3076 3074 3072
3091 3093 3094 3094 3097 3099 3100 3102 3103 3104 3106 3107 3108 3107 3106 3107 3107 3107 3107 3106 3105 3104 3103 3102 3101 3100 3099 3097 3096 3094 3092 3090 3088 3086 3084 3081 3079 3076 3074 3071 3068 3065 3063
3086 3087 3088 3090 3091 3092 3094 3096 3098 3100 3101 3101 3101 3102 3102 3101 3101 3101 3100 3099 3098 3096 3095 3095 3093 3093 3091 3090 3088 3087 3084 3082 3080 3078 3076 3074 3071 3068 3065 3062 3060 3057 3054
3082 3082 3083 3084 3084 3085 3087 3089 3092 3093 3097 3095 3096 3096 3096 3095 3095 3094 3092 3091 3090 3089 3088 3087 3086 3085 3084 3082 3081 3078 3077 3074 3072 3070 3068 3065 3063 3060 3057 3054 3051 3049 3046
Wind_Speed
18 16 11 6 3 5 7 9 9 8 8 5 4 3 2 3 5 6 8 9 9 8 7 6 5 2 1 1 1 3 5 6 7 7 10 10 10 11 12 13 16 17 18
12 17 11 7 5 4 6 7 8 10 10 8 5 2 3 4 4 6 7 8 8 8 8 7 5 3 2 1 1 3 4 6 7 7 5 8 12 13 14 15 18 19 19
24 15 11 7 3 3 3 5 9 11 11 8 6 3 2 2 2 3 4 4 5 7 7 7 6 5 3 2 2 2 2 4 5 5 6 9 10 13 14 15 17 18 20
19 12 10 8 5 3 1 5 8 11 12 9 5 3 1 1 1 2 3 4 6 7 6 5 5 5 4 4 4 4 3 4 5 5 7 9 9 12 12 18 18 18 16
17 11 9 9 6 5 3 5 8 11 13 11 6 4 2 1 1 2 2 3 5 6 6 6 6 6 5 5 5 5 5 5 6 7 9 10 12 13 15 14 20 17 16
13 12 10 10 10 6 4 7 10 13 14 13 8 6 4 3 3 3 3 4 4 4 5 6 6 6 6 6 6 7 8 8 8 8 9 10 12 13 15 17 18 19 21
15 15 12 13 12 9 7 9 10 13 16 18 12 7 6 5 4 4 3 3 3 3 4 5 5 6 6 6 6 7 8 9 10 11 12 13 14 15 16 16 18 18 19
14 17 16 16 12 7 9 10 10 12 15 16 15 7 7 6 7 5 4 3 2 2 5 6 6 8 9 10 10 9 9 9 10 11 12 13 14 15 16 17 17 16 17
17 16 17 16 8 10 12 12 13 13 15 15 14 10 8 11 7 8 7 7 7 6 6 6 8 10 11 11 12 12 13 14 13 12 12 12 13 14 13 14 14 15 16
12 7 17 22 18 16 15 14 13 16 17 16 14 13 12 11 9 8 7 7 8 12 10 10 10 14 14 13 16 17 18 16 16 14 13 13 14 14 15 15 15 14 14
14 13 12 16 25 19 20 16 15 15 16 17 16 12 14 13 11 9 10 9 12 14 12 14 13 21 11 14 16 20 17 16 15 14 15 16 17 18 17 17 15 14 12
19 15 14 10 18 27 28 24 17 16 15 16 15 13 13 14 13 11 11 10 10 11 13 14 17 18 15 15 18 18 19 15 14 15 15 16 15 15 16 14 14 14 14
13 10 15 15 13 14 18 19 19 18 17 17 15 15 15 14 14 12 11 12 13 14 16 18 20 19 17 18 18 20 15 15 14 14 13 14 14 15 16 16 16 14 16
14 16 17 17 17 15 16 23 23 18 18 17 14 18 16 14 14 13 13 13 15 18 20 17 17 18 21 19 19 15 14 12 11 11 13 14 15 15 16 16 16 17 16
11 14 15 17 19 19 20 21 19 17 17 15 15 15 15 14 15 13 13 13 14 14 13 14 17 18 18 16 14 12 11 12 12 13 13 15 16 16 17 17 17 17 17
18 19 17 16 15 15 16 18 18 16 16 15 15 15 14 14 14 13 13 14 14 12 13 14 13 13 13 13 12 12 12 12 13 14 15 15 15 15 15 15 15 15 15
17 17 16 16 15 15 15 16 18 17 16 16 15 14 15 15 14 14 14 15 14 13 12 12 12 12 11 10 10 11 13 14 14 14 14 14 13 14 14 13 13 13 13
16 16 16 16 16 16 16 17 16 16 15 15 15 15 15 15 14 15 15 15 14 12 11 12 12 11 11 11 11 12 12 12 12 13 12 13 13 13 13 13 13 13 13
20 18 18 18 17 17 17 17 17 16 17 16 15 15 16 15 15 14 13 12 12 11 11 12 11 11 12 12 13 12 12 12 13 13 13 14 14 14 14 12 12 18 19
27 25 21 21 20 20 19 19 18 18 17 16 16 15 15 14 13 12 12 11 11 12 12 12 12 12 14 13 13 13 14 14 13 12 12 14 14 14 13 14 14 15 15
26 24 23 23 22 20 19 19 18 16 16 16 15 15 14 12 11 12 12 11 11 13 13 12 12 13 13 14 14 15 13 11 13 14 15 17 20 21 17 16 17 17 18
22 23 22 21 21 20 19 19 17 16 16 15 15 14 13 12 12 12 12 12 13 13 15 15 14 12 12 15 17 18 18 20 21 22 22 23 24 24 23 22 21 18 19
19 22 23 23 21 20 18 19 19 16 15 14 13 13 12 11 12 12 14 13 15 14 13 14 17 18 18 19 18 19 21 23 24 25 25 25 25 26 26 25 26 25 25
21 22 24 21 21 20 21 21 18 17 14 11 12 12 14 14 15 17 15 18 15 20 20 17 21 23 21 22 22 23 24 26 26 27 25 25 25 27 27 27 27 28 28
19 19 23 25 26 24 26 24 21 16 14 16 16 16 18 18 16 18 23 21 23 21 23 27 23 23 23 24 25 26 26 26 26 25 26 26 27 27 28 28 29 28 29
18 21 23 28 26 28 31 22 20 21 17 20 19 19 21 19 19 21 22 25 23 23 21 20 21 23 25 26 26 26 26 26 26 26 26 27 27 28 28 28 29 28 29
Wind_Direction
209 201 205 196 133 53 40 39 29 32 33 16 34 45 53 64 73 71 62 53 52 50 51 54 59 54 128 163 152 219 245 259 264 286 259 267 277 265 276 279 285 290 290
209 188 183 182 139 87 51 29 29 25 28 23 14 43 73 79 88 80 59 52 46 52 48 45 43 36 20 51 273 249 250 270 276 263 306 252 273 283 279 285 288 294 295
160 166 168 173 144 93 67 44 23 19 18 15 11 17 59 88 83 68 54 45 46 39 39 41 43 38 27 7 338 328 271 269 284 286 253 272 281 275 285 291 298 298 302
167 163 177 176 177 189 38 28 20 11 8 4 357 15 341 266 43 36 28 15 11 17 16 16 11 18 21 10 353 337 316 301 295 292 286 290 287 282 293 293 295 298 297
178 175 189 192 205 228 307 356 2 358 357 352 337 324 299 272 298 305 325 354 358 5 15 24 33 30 20 6 358 343 326 308 296 287 283 281 280 282 283 292 297 303 291
207 191 205 215 215 247 291 323 349 352 352 352 336 314 309 292 279 284 305 334 347 352 8 9 357 351 350 345 340 331 322 316 307 298 291 290 290 290 294 297 298 297 289
228 217 209 215 215 239 279 301 327 335 342 346 345 311 302 283 277 297 307 322 334 346 353 348 351 347 340 337 335 333 328 313 298 292 290 291 293 294 294 296 297 297 296
212 228 219 219 218 237 269 293 313 319 332 338 341 343 341 307 271 259 257 249 256 299 323 325 334 334 330 330 328 326 333 333 316 301 293 289 287 289 292 296 298 300 296
219 218 214 205 225 245 262 286 298 306 325 321 316 314 335 342 300 260 260 256 270 293 306 311 325 322 312 323 327 325 324 324 321 312 304 301 301 303 303 303 303 305 301
223 233 252 224 238 255 260 274 291 300 308 307 303 295 308 324 318 288 258 265 284 292 294 300 321 321 304 309 318 324 324 315 319 312 310 311 313 310 311 310 309 305 300
231 235 284 222 231 235 252 266 277 284 299 298 301 284 293 313 303 287 264 254 268 285 286 288 300 313 302 306 308 316 319 317 314 314 317 320 321 322 322 320 319 316 312
222 238 264 256 256 251 252 266 274 288 289 292 285 289 293 302 298 295 291 268 276 280 284 289 305 306 298 303 309 317 315 318 319 321 323 325 326 325 325 326 324 319 315
224 230 255 278 273 265 255 262 271 279 279 289 290 290 291 300 294 292 279 274 274 278 281 290 297 305 312 308 313 323 322 325 327 326 325 325 326 323 320 320 319 316 312
259 259 258 259 262 260 259 262 269 264 271 271 277 281 294 292 289 284 290 285 278 278 278 283 293 299 311 314 320 320 322 323 324 324 324 322 321 320 319 319 318 317 317
284 287 278 267 261 257 253 257 253 259 271 272 274 282 284 288 287 288 290 289 285 285 278 282 287 302 309 312 313 316 321 326 327 326 322 320 320 321 321 321 321 321 321
292 291 284 274 267 257 251 249 249 257 258 261 268 273 280 279 280 279 282 284 280 280 284 283 293 297 296 302 312 318 323 327 326 324 323 322 322 323 326 328 328 328 326
283 282 279 271 264 257 253 250 254 254 258 263 267 269 271 272 273 274 274 277 282 283 285 287 286 287 294 299 304 312 318 323 324 325 324 325 329 331 334 335 335 335 333
277 277 275 273 265 257 254 255 256 257 258 261 262 265 266 267 268 266 268 271 275 279 280 278 280 283 286 290 299 308 314 318 319 319 320 322 323 326 328 332 335 332 330
275 276 276 270 263 258 255 255 253 251 252 251 251 258 261 259 259 262 263 261 264 265 263 266 272 276 280 290 299 304 307 309 312 315 318 322 323 324 325 327 327 327 331
270 272 265 259 255 251 247 246 244 243 242 248 252 251 250 252 256 260 259 254 253 255 257 259 265 272 281 290 298 304 310 314 316 323 315 315 317 319 318 315 314 310 313
269 259 249 244 241 240 240 237 235 237 245 243 245 251 255 260 262 260 259 257 257 257 257 259 267 272 280 289 293 300 301 298 298 300 304 304 310 313 300 305 305 304 303
251 243 236 234 234 234 230 227 225 228 235 241 250 254 257 260 259 261 264 268 265 266 265 263 262 263 263 271 280 289 295 297 298 298 302 303 306 307 305 300 297 299 297
247 240 232 230 228 221 217 225 225 224 233 238 243 250 260 262 257 264 278 272 276 278 284 287 281 274 281 285 290 292 293 293 293 296 298 301 302 301 303 303 303 300 297
248 243 240 224 221 222 220 213 217 225 222 225 232 243 263 266 260 272 264 264 285 276 263 270 280 274 280 285 289 293 293 291 291 294 296 297 298 298 300 300 300 299 299
256 244 238 228 220 210 211 221 224 215 228 232 241 254 257 252 258 282 272 270 273 278 275 274 274 272 278 284 287 289 289 289 291 293 295 297 298 299 300 300 300 300 299
253 245 240 234 236 214 218 209 207 218 222 240 248 255 269 272 279 275 281 271 271 270 272 270 273 277 280 282 285 287 289 290 292 295 296 297 298 299 299 298 298 298 297